Regional Weather Roundup
Issued by NWS Kansas City/Pleasant Hill, MO

Home | Current Version | Previous Version | Text Only | Print | Product List | Glossary On
Versions: 1 2 3 4 5 6 7 8 9 10 11 12 13 14 15 16 17 18 19 20 21 22 23 24 25 26 27 28 29 30 31 32 33 34 35 36 37 38 39 40 41 42 43 44 45 46 47 48 49 50
000
ASUS43 KEAX 180510
RWREAX

WEATHER ROUNDUP FOR EASTERN KANSAS AND NORTHWEST MISSOURI
NATIONAL WEATHER SERVICE KANSAS CITY/PLEASANT HILL MO
1100 PM CST TUE JAN 17 2017

KSZ040-057-103>105-MOZ028-029-037-043-180600-
...KANSAS CITY METROPOLITAN AREA...

CITY           SKY/WX    TMP DP  RH WIND       PRES   REMARKS
K.C. INTL      CLOUDY    30  27  88 S6        30.15S FOG     WCI  24
K.C. DOWNTOWN  FOG       30  28  92 CALM      30.17R VSB 1
LEES SUMMIT    CLEAR     32  31  96 S7        30.17R WCI  26
OLATHE - IXD   FOG       29  28  96 S3        30.17R VSB 1/2
OLATHE - OJC   CLEAR     31  31 100 S5        30.16R FOG     WCI  26
LAWRENCE       CLOUDY    29  29 100 E5        30.17R FOG     WCI  24

$$

MOZ001>008-011>017-020>025-030>033-038>040-044>046-053-054-180600-
...NORTHERN AND CENTRAL MISSOURI...

CITY           SKY/WX    TMP DP  RH WIND       PRES   REMARKS
ST. JOSEPH     FOG       25  25 100 CALM      30.15F VSB 1/2
MOSBY          CLOUDY    28  28 100 CALM      30.17S
WARRENSBURG    CLOUDY    34  32  93 CALM      30.19R
WHITEMAN AFB   PTCLDY    32  32 100 SW6       30.17R WCI  26
CLINTON        CLOUDY    36  34  93 CALM      30.19S
SEDALIA        CLOUDY    37  33  85 VRB3      30.19R
WARSAW         NOT AVBL
CHILLICOTHE      N/A     34  31  88 SW3       30.19R
KIRKSVILLE     CLOUDY    35  32  88 W9        30.16R WCI  28

$$

MOZ041-047>049-056>058-063>065-088>090-097-180600-
...EASTERN AND SOUTHERN MISSOURI...

CITY           SKY/WX    TMP DP  RH WIND       PRES   REMARKS
ST. LOUIS INTL CLOUDY    41  35  79 NW8       30.17S
SPIRIT OF STL  CLOUDY    40  37  89 W10       30.17S WCI  33
COLUMBIA       CLOUDY    38  34  85 W6        30.18R WCI  33
JEFFERSON CITY CLOUDY    39  34  82 W8        30.20R WCI  33
ROLLA          CLOUDY    37  35  92 W8        30.16S WCI  31
OSAGE BEACH    CLOUDY    38  35  89 SW3       30.20R
SPRINGFIELD    CLOUDY    37  35  92 SW5       30.20R WCI  33
BRANSON        CLOUDY    37  37 100 W3        30.22R
JOPLIN         CLOUDY    38  37  97 S8        30.22R WCI  32
WEST PLAINS    CLOUDY    39  36  89 NW6       30.19R WCI  35

$$

IAZ060-094-KSZ022-034>040-054-083-096-NEZ052-066-093-180600-
...KANSAS...SOUTHEAST NEBRASKA AND IOWA...

CITY           SKY/WX    TMP DP  RH WIND       PRES   REMARKS
TOPEKA         CLOUDY    29  25  85 CALM      30.16R
MANHATTAN      CLOUDY    26  24  92 CALM      30.16R
EMPORIA        CLOUDY    29  27  92 S8        30.16R WCI  21
CHANUTE        PTCLDY    34  32  92 S6        30.19R WCI  29
WICHITA        PTCLDY    36  32  85 S6        30.15F WCI  31
OMAHA          CLOUDY    28  23  81 SE8       30.09R FOG     WCI  20
LINCOLN        CLOUDY    26  25  96 S7        30.11R FOG     WCI  18
FALLS CITY     CLEAR     29  27  92 S5        30.14R WCI  24
LAMONI         CLOUDY    31  29  92 SW7       30.12S WCI  24
DES MOINES     CLOUDY    32  30  92 W7        30.11R WCI  26

$$




USA.gov is the U.S. government's official web portal to all federal, state and local government web resources and services.